CDT,Max TemperatureF,Mean TemperatureF,Min TemperatureF,Max Dew PointF,MeanDew PointF,Min DewpointF,Max Humidity, Mean Humidity, Min Humidity, Max Sea Level PressureIn, Mean Sea Level PressureIn, Min Sea Level PressureIn, Max VisibilityMiles, Mean VisibilityMiles, Min VisibilityMiles, Max Wind SpeedMPH, Mean Wind SpeedMPH, Max Gust SpeedMPH,PrecipitationIn, CloudCover, Events, WindDirDegrees
2013-10-1,84,67,50,62,54,32,81,61,40,29.92,29.86,29.78,10,9,5,14,7,18,0.00,0,,158
2013-10-2,84,72,59,66,63,58,97,76,55,29.93,29.86,29.77,10,7,2,23,14,31,0.00,1,,155
2013-10-3,87,74,61,66,63,60,93,69,45,29.86,29.75,29.61,10,9,5,25,16,31,0.05,4,Rain-Thunderstorm,125
2013-10-4,89,68,47,67,56,31,84,58,32,29.99,29.70,29.60,10,10,9,32,21,41,0.00,1,,216
2013-10-5,60,51,41,32,30,28,67,51,35,30.04,29.99,29.95,10,10,10,31,17,40,0.00,4,,281
2013-10-6,68,56,44,39,33,18,71,43,14,30.08,29.98,29.94,10,10,10,26,15,35,0.00,5,,305
2013-10-7,76,59,41,38,35,32,76,49,21,30.16,30.08,30.00,10,10,7,23,11,30,0.00,0,,224
2013-10-8,80,67,54,49,41,37,64,45,25,29.99,29.93,29.85,10,10,10,31,22,39,0.00,0,,174
2013-10-9,82,68,54,54,48,45,77,52,26,29.94,29.90,29.86,10,10,10,30,20,39,0.00,0,,158
2013-10-10,83,70,57,58,55,52,86,63,40,29.93,29.84,29.71,10,10,9,29,18,36,0.00,0,,154
2013-10-11,79,66,52,59,48,37,90,57,23,29.93,29.72,29.62,10,10,7,28,15,36,0.01,1,,231
2013-10-12,69,56,43,42,36,29,89,57,24,30.27,30.14,29.94,10,10,8,16,4,20,0.00,0,,333
2013-10-13,71,56,40,38,34,31,79,51,23,30.38,30.30,30.20,10,10,9,25,11,29,0.00,1,,117
2013-10-14,63,56,49,61,53,38,93,69,44,30.20,29.95,29.75,10,7,1,32,16,39,0.69,8,Rain-Thunderstorm,157
2013-10-15,57,50,42,47,37,34,89,68,47,30.17,30.06,29.92,10,10,10,28,16,36,0.00,3,Rain,306
2013-10-16,58,49,39,37,34,26,85,59,32,30.17,30.10,30.01,10,10,10,16,9,22,0.00,3,,283
2013-10-17,63,51,39,39,36,35,85,61,36,30.12,30.00,29.95,10,10,7,21,12,25,0.00,0,Rain,291
2013-10-18,46,41,35,37,33,28,100,75,49,30.19,30.14,30.10,10,10,4,15,8,23,T,4,Rain,273
2013-10-19,67,51,34,36,33,30,100,64,28,30.08,29.97,29.84,10,10,10,20,11,26,0.00,0,,246
2013-10-20,68,57,45,40,37,34,66,50,34,30.04,29.85,29.77,10,10,10,15,9,20,0.00,1,,297
2013-10-21,61,46,31,37,33,30,100,66,32,30.16,30.07,29.97,10,10,9,20,9,26,0.00,2,,264
2013-10-22,64,51,37,42,37,33,82,61,39,30.15,30.02,29.95,10,10,10,26,11,32,0.00,2,,315
2013-10-23,67,51,34,41,37,33,92,65,37,30.23,30.11,30.00,10,10,8,25,9,34,0.00,2,,244
2013-10-24,49,41,33,38,30,20,82,57,31,30.46,30.36,30.23,10,9,7,17,6,22,0.00,6,,20
2013-10-25,58,47,36,38,27,23,66,47,28,30.44,30.30,30.09,10,10,10,24,14,33,0.00,2,,189
2013-10-26,59,48,36,39,30,22,92,59,25,30.25,30.18,30.07,10,10,7,21,9,26,0.00,0,,331
2013-10-27,73,54,35,33,28,24,64,43,22,30.17,29.98,29.84,10,10,10,23,13,30,0.00,0,,202
2013-10-28,61,49,36,53,48,31,100,83,66,30.08,30.02,29.90,10,8,4,21,9,26,0.03,5,Rain-Thunderstorm,108
2013-10-29,60,55,49,60,54,50,100,97,93,30.03,29.96,29.87,5,2,0,14,8,20,0.02,8,Fog-Rain,94
2013-10-30,51,46,40,49,46,41,100,93,86,29.97,29.87,29.78,10,4,0,12,7,15,T,7,Fog-Rain,339
2013-10-31,62,51,40,44,39,33,100,68,36,29.76,29.67,29.59,10,8,3,24,10,30,T,2,,291